Location: Goudex
(43.3760°N, 0.9543°E)
Time: 10:01:20
(UTC+00:00)

Cosmos 1151 Rocket - Pass Details

Date: 20 November 2019
Orbit: 593 x 616 km, 82.5° (Epoch: 08 December)

Event Time Altitude Azimuth Distance (km) Brightness Sun altitude
Exits shadow 05:03:37 13° 350° (N) 1,803 5.2 -20.1°
Maximum altitude 05:07:33 83° 265° (W) 620 2.9 -19.4°
Drops below altitude 10° 05:11:52 10° 176° (S) 1,948 5.8 -18.6°
Sets 05:14:04 0° 175° (S) 2,843 6.7 -18.2°
